contact:dominique.lefevre@mio.osupytheas.fr, maurice.libes@osupytheas.fr
Project:EMSO Ligure-ouest http://www.emso-fr.org/EMSO-France
Sensor Aquadopp, line 04 Serial AQD8517 
DOI : "https://doi.org/10.17882/74513; https://doi.org/10.17882/83244" 
Title:EMSO Ligure Ouest : Data ligne ALBATROSS capteur AQUADOPP - deploiement 2021
Id,Date,Profondeur,Latitude,Longitude,X_East,Y_North,Z_Up,Amplitude_X,Amplitude_Y,Amplitude_Z,Batterie,SoundSpeed,Heading,Pitch,Roll,Pressure,Temperature,Speed,Direction
, , m, degrees North, degrees East, m.s-1, m.s-1,m.s-1, 1, 1, 1, Volt, m.s-1, degree, degree, degree, dbar, degree_C, m.s-1, degree
04,2022-03-04T21:30:00,1000.0,42.79,6.0312,-0.023,0.018,-0.015,67.0,69.0,66.0,12.3,1504.7,319.7,-0.6,-0.5,967.437,13.29,0.029,308.0
04,2022-03-04T22:00:00,1000.0,42.79,6.0312,-0.011,0.033,-0.004,66.0,69.0,64.0,12.3,1504.7,319.2,-0.6,-0.5,967.41,13.29,0.034,341.6
04,2022-03-04T22:30:00,1000.0,42.79,6.0312,-0.006,0.03,0.005,65.0,69.0,66.0,12.3,1504.7,319.8,-0.6,-0.4,967.381,13.3,0.03,348.7
04,2022-03-04T23:00:00,1000.0,42.79,6.0312,-0.009,0.032,-0.01,66.0,69.0,64.0,12.3,1504.7,320.5,-0.6,-0.5,967.368,13.3,0.033,344.3
04,2022-03-04T23:30:00,1000.0,42.79,6.0312,-0.012,0.024,-0.005,66.0,69.0,65.0,12.3,1504.7,325.2,-0.6,-0.4,967.333,13.3,0.026,333.4
04,2022-03-05T00:00:00,1000.0,42.79,6.0312,-0.007,0.02,-0.011,67.0,68.0,65.0,12.3,1504.7,332.1,-0.6,-0.4,967.298,13.3,0.021,340.7
04,2022-03-05T00:30:00,1000.0,42.79,6.0312,-0.004,0.027,-0.012,66.0,69.0,65.0,12.3,1504.7,338.7,-0.5,-0.4,967.264,13.3,0.027,351.6
04,2022-03-05T01:00:00,1000.0,42.79,6.0312,0.007,0.032,-0.013,67.0,68.0,66.0,12.3,1504.8,342.4,-0.5,-0.4,967.265,13.31,0.032,12.3
04,2022-03-05T01:30:00,1000.0,42.79,6.0312,-0.001,0.022,-0.004,68.0,68.0,65.0,12.3,1504.8,340.5,-0.5,-0.4,967.258,13.32,0.022,357.4
04,2022-03-05T02:00:00,1000.0,42.79,6.0312,-0.006,0.017,0.009,66.0,67.0,66.0,12.3,1504.8,343.1,-0.5,-0.4,967.238,13.32,0.018,340.6
04,2022-03-05T02:30:00,1000.0,42.79,6.0312,0.007,0.019,-0.002,66.0,69.0,65.0,12.3,1504.8,342.6,-0.5,-0.4,967.216,13.32,0.02,20.2
04,2022-03-05T03:00:00,1000.0,42.79,6.0312,-0.005,0.013,0.004,67.0,69.0,66.0,12.3,1504.8,342.9,-0.5,-0.4,967.209,13.31,0.013,339.0
04,2022-03-05T03:30:00,1000.0,42.79,6.0312,0.001,0.005,0.01,68.0,69.0,65.0,12.3,1504.7,340.5,-0.5,-0.4,967.244,13.3,0.005,11.3
04,2022-03-05T04:00:00,1000.0,42.79,6.0312,0.004,0.004,0.006,67.0,68.0,64.0,12.3,1504.7,337.9,-0.4,-0.4,967.232,13.29,0.005,45.0
04,2022-03-05T04:30:00,1000.0,42.79,6.0312,0.005,0.007,0.006,65.0,67.0,68.0,12.3,1504.7,342.3,-0.5,-0.4,967.232,13.29,0.008,35.5
04,2022-03-05T05:00:00,1000.0,42.79,6.0312,0.022,-0.003,0.004,66.0,68.0,65.0,12.3,1504.7,346.3,-0.4,-0.4,967.215,13.29,0.022,97.8
04,2022-03-05T05:30:00,1000.0,42.79,6.0312,0.001,0.005,-0.014,64.0,68.0,66.0,12.3,1504.7,342.5,-0.5,-0.4,967.31,13.3,0.005,11.3
04,2022-03-05T06:00:00,1000.0,42.79,6.0312,0.007,-0.003,0.003,64.0,68.0,67.0,12.3,1504.7,339.4,-0.4,-0.5,967.339,13.3,0.007,113.2
04,2022-03-05T06:30:00,1000.0,42.79,6.0312,0.019,-0.009,-0.001,68.0,69.0,65.0,12.3,1504.8,338.0,-0.5,-0.4,967.356,13.31,0.021,115.3
04,2022-03-05T07:00:00,1000.0,42.79,6.0312,0.014,-0.011,-0.005,65.0,69.0,65.0,12.3,1504.8,331.2,-0.5,-0.4,967.421,13.31,0.017,128.2
04,2022-03-05T07:30:00,1000.0,42.79,6.0312,0.005,-0.01,-0.001,66.0,70.0,65.0,12.3,1504.8,324.6,-0.5,-0.4,967.449,13.31,0.011,153.4
04,2022-03-05T08:00:00,1000.0,42.79,6.0312,0.0,-0.004,0.002,66.0,69.0,63.0,12.3,1504.7,324.6,-0.5,-0.4,967.472,13.3,0.004,180.0
04,2022-03-05T08:30:00,1000.0,42.79,6.0312,0.006,-0.006,-0.006,67.0,68.0,65.0,12.3,1504.7,326.1,-0.5,-0.4,967.488,13.3,0.008,135.0
04,2022-03-05T09:00:00,1000.0,42.79,6.0312,-0.012,-0.012,0.004,66.0,68.0,63.0,12.3,1504.8,324.8,-0.5,-0.4,967.473,13.31,0.016,225.0
04,2022-03-05T09:30:00,1000.0,42.79,6.0312,-0.018,-0.017,0.013,65.0,67.0,63.0,12.3,1504.8,322.6,-0.5,-0.4,967.462,13.31,0.024,226.6
04,2022-03-05T10:00:00,1000.0,42.79,6.0312,-0.019,-0.013,-0.002,67.0,67.0,65.0,12.3,1504.8,323.4,-0.5,-0.4,967.492,13.31,0.023,235.6
04,2022-03-05T10:30:00,1000.0,42.79,6.0312,-0.013,-0.011,0.008,66.0,67.0,64.0,12.3,1504.7,320.6,-0.5,-0.4,967.456,13.3,0.017,229.8
04,2022-03-05T11:00:00,1000.0,42.79,6.0312,-0.018,-0.011,-0.014,65.0,70.0,68.0,12.3,1504.7,318.5,-0.5,-0.4,967.444,13.3,0.021,238.6
04,2022-03-05T11:30:00,1000.0,42.79,6.0312,-0.01,-0.007,0.009,66.0,70.0,63.0,12.3,1504.7,319.0,-0.5,-0.4,967.425,13.3,0.012,235.0
04,2022-03-05T12:00:00,1000.0,42.79,6.0312,-0.016,0.001,0.014,65.0,68.0,65.0,12.3,1504.7,319.0,-0.5,-0.4,967.388,13.3,0.016,273.6
04,2022-03-05T12:30:00,1000.0,42.79,6.0312,-0.021,-0.005,0.005,67.0,70.0,66.0,12.3,1504.7,319.0,-0.5,-0.4,967.361,13.3,0.021,256.6
04,2022-03-05T13:00:00,1000.0,42.79,6.0312,-0.034,0.01,0.006,68.0,68.0,65.0,12.3,1504.7,316.1,-0.5,-0.4,967.353,13.3,0.035,286.4
04,2022-03-05T13:30:00,1000.0,42.79,6.0312,-0.016,0.0,-0.018,66.0,67.0,64.0,12.3,1504.7,316.2,-0.5,-0.4,967.332,13.3,0.016,270.0
04,2022-03-05T14:00:00,1000.0,42.79,6.0312,-0.026,0.025,-0.005,68.0,68.0,65.0,12.3,1504.8,317.8,-0.5,-0.4,967.299,13.31,0.036,313.9
04,2022-03-05T14:30:00,1000.0,42.79,6.0312,-0.031,0.006,0.006,69.0,67.0,65.0,12.3,1504.8,321.3,-0.5,-0.4,967.267,13.32,0.031,281.0
04,2022-03-05T15:00:00,1000.0,42.79,6.0312,-0.014,0.027,0.004,65.0,70.0,64.0,12.3,1504.8,319.4,-0.5,-0.4,967.282,13.31,0.03,332.6
04,2022-03-05T15:30:00,1000.0,42.79,6.0312,-0.015,0.016,-0.005,65.0,68.0,65.0,12.3,1504.8,319.6,-0.5,-0.4,967.237,13.32,0.021,316.9
04,2022-03-05T16:00:00,1000.0,42.79,6.0312,0.0,0.02,0.016,66.0,68.0,65.0,12.3,1504.8,321.5,-0.5,-0.5,967.273,13.31,0.02,0.0
04,2022-03-05T16:30:00,1000.0,42.79,6.0312,-0.01,0.017,0.011,65.0,69.0,64.0,12.3,1504.8,323.3,-0.6,-0.4,967.298,13.31,0.019,329.5
04,2022-03-05T17:00:00,1000.0,42.79,6.0312,-0.004,0.02,0.007,67.0,68.0,64.0,12.3,1504.7,331.9,-0.5,-0.5,967.248,13.3,0.02,348.7
04,2022-03-05T17:30:00,1000.0,42.79,6.0312,-0.007,0.019,0.002,68.0,67.0,66.0,12.3,1504.7,338.4,-0.5,-0.4,967.29,13.3,0.02,339.8
04,2022-03-05T18:00:00,1000.0,42.79,6.0312,0.014,0.017,0.002,67.0,69.0,65.0,12.3,1504.7,347.7,-0.5,-0.4,967.309,13.29,0.022,39.5
04,2022-03-05T18:30:00,1000.0,42.79,6.0312,0.008,0.0,-0.008,66.0,68.0,64.0,12.3,1504.7,351.7,-0.4,-0.4,967.339,13.29,0.008,90.0
04,2022-03-05T19:00:00,1000.0,42.79,6.0312,0.004,0.022,0.014,66.0,68.0,67.0,12.3,1504.7,355.9,-0.4,-0.5,967.374,13.3,0.022,10.3
04,2022-03-05T19:30:00,1000.0,42.79,6.0312,0.004,0.021,-0.007,66.0,66.0,64.0,12.3,1504.7,4.3,-0.4,-0.4,967.391,13.3,0.021,10.8
04,2022-03-05T20:00:00,1000.0,42.79,6.0312,0.006,0.008,0.0,67.0,68.0,66.0,12.3,1504.7,16.4,-0.4,-0.4,967.401,13.3,0.01,36.9
04,2022-03-05T20:30:00,1000.0,42.79,6.0312,0.015,0.012,-0.003,65.0,67.0,65.0,12.3,1504.7,28.3,-0.4,-0.4,967.424,13.29,0.019,51.3
04,2022-03-05T21:00:00,1000.0,42.79,6.0312,-0.003,0.013,0.006,65.0,69.0,64.0,12.3,1504.7,38.8,-0.4,-0.4,967.464,13.29,0.013,347.0
